PICO-01A003

operational
NORAD ID: 58326 Int'l Des: 2023-174 Owner: APOGEO Country: I
LEOCIRCULARRETROGRADESSO

关于 PICO-01A003

正在加载描述...

实时位置

正在加载3D地球...

即将过境

高度历史

Altitude vs Time

uPlot chart will show altitude changes over time

两行轨道根数

1 58326U 23174BY 26062.16688983 .00025911 00000-0 61634-3 0 9997
2 58326 97.3853 145.9555 0006675 175.1373 184.9940 15.41600676129054
Epoch: Mar 3, 2026 • Age: 8 hours

当前状态

高度 458.2 km
速度 7.64 km/s
星下点 -49.90°S, 34.46°E
发射日期 Nov 11, 2023
运行时间 2.3 years
类型 other

技术详情

分类 Payload
质量 0.50 kg
干质量 0.50 kg
总质量 0.50 kg
长度 0.03 m
直径 0.10 m
跨度 0.10 m
形状 Box
制造商 APOGEO
平台类型 Cubesat 0.3U
阶段状态 In Orbit
所有者/国家 APOGEO/I

大型星座

Loading constellations...